Regional Weather Roundup
Issued by NWS Kansas City/Pleasant Hill, MO

Home | Current Version | Previous Version | Text Only | Print | Product List | Glossary On
Versions: 1 2 3 4 5 6 7 8 9 10 11 12 13 14 15 16 17 18 19 20 21 22 23 24 25 26 27
000
ASUS43 KEAX 250610
RWREAX

WEATHER ROUNDUP FOR EASTERN KANSAS AND NORTHWEST MISSOURI
NATIONAL WEATHER SERVICE KANSAS CITY/PLEASANT HILL MO
100 AM CDT THU MAY 25 2017

KSZ040-057-103>105-MOZ028-029-037-043-250700-
...KANSAS CITY METROPOLITAN AREA...

CITY           SKY/WX    TMP DP  RH WIND       PRES   REMARKS
K.C. INTL      CLEAR     51  47  86 SE3       29.70S
6HR MIN TEMP:  51; 6HR MAX TEMP:  65;

K.C. DOWNTOWN  CLEAR     53  51  93 CALM      29.70S
6HR MIN TEMP:  53; 6HR MAX TEMP:  67;

LEES SUMMIT    CLEAR     53  50  89 CALM      29.71S
6HR MIN TEMP:  52; 6HR MAX TEMP:  66;

OLATHE - IXD   CLEAR     49  47  93 CALM      29.71S
6HR MIN TEMP:  49; 6HR MAX TEMP:  62;

OLATHE - OJC   CLEAR     50  49  96 CALM      29.70F
6HR MIN TEMP:  50; 6HR MAX TEMP:  65;

LAWRENCE       CLEAR     48  48 100 CALM      29.70F

$$

MOZ001>008-011>017-020>025-030>033-038>040-044>046-053-054-250700-
...NORTHERN AND CENTRAL MISSOURI...

CITY           SKY/WX    TMP DP  RH WIND       PRES   REMARKS
ST. JOSEPH     CLEAR     49  49 100 CALM      29.70F
6HR MIN TEMP:  48; 6HR MAX TEMP:  66;

WARRENSBURG    CLEAR     50  50 100 CALM      29.70S
WHITEMAN AFB   CLEAR     51  51 100 W3        29.69S
6HR MIN TEMP:  50; 6HR MAX TEMP:  58;

CLINTON        NOT AVBL
SEDALIA        CLEAR     54  53  97 W6        29.71S
6HR MIN TEMP:  54; 6HR MAX TEMP:  64;

WARSAW         NOT AVBL
CHILLICOTHE      N/A     50  48  93 CALM      29.71S
6HR MIN TEMP:  49; 6HR MAX TEMP:  66;

KIRKSVILLE     CLEAR     48  47  96 W6        29.69S
6HR MIN TEMP:  46; 6HR MAX TEMP:  59;


$$

MOZ041-047>049-056>058-063>065-088>090-097-250700-
...EASTERN AND SOUTHERN MISSOURI...

CITY           SKY/WX    TMP DP  RH WIND       PRES   REMARKS
ST. LOUIS INTL CLEAR     57  51  80 W8        29.63R
6HR MIN TEMP:  57; 6HR MAX TEMP:  65;

SPIRIT OF STL  CLEAR     53  51  93 W5        29.63S
COLUMBIA       CLEAR     51  50  96 W6        29.68S
JEFFERSON CITY CLEAR     54  49  83 NW3       29.68S
ROLLA          CLEAR     50  48  93 W7        29.66F
OSAGE BEACH    CLEAR     49  48  97 CALM      29.70S
SPRINGFIELD    CLEAR     50  48  93 CALM      29.71S
BRANSON        CLEAR     50  50 100 CALM      29.74R
JOPLIN         CLEAR     50  49  96 CALM      29.73R
WEST PLAINS    CLEAR     50  48  93 W3        29.70S

$$

IAZ060-094-KSZ022-034>040-054-083-096-NEZ052-066-093-250700-
...KANSAS...SOUTHEAST NEBRASKA AND IOWA...

CITY           SKY/WX    TMP DP  RH WIND       PRES   REMARKS
TOPEKA         CLEAR     52  51  97 CALM      29.70S
6HR MIN TEMP:  52; 6HR MAX TEMP:  69;

MANHATTAN      CLEAR     47  46  97 CALM      29.69F
EMPORIA        CLEAR     50  46  86 S6        29.70F
CHANUTE        CLEAR     51  46  83 S3        29.72R
WICHITA        CLEAR     50  44  80 S5        29.70R
OMAHA          CLEAR     54  44  69 S3        29.67S
LINCOLN        CLEAR     51  44  77 SE6       29.67F
FALLS CITY     CLEAR     51  47  86 SE5       29.68F
LAMONI         CLEAR     51  47  86 CALM      29.69F
DES MOINES     CLEAR     53  48  83 CALM      29.69F

$$





USA.gov is the U.S. government's official web portal to all federal, state and local government web resources and services.